Cleveland Burke, OH

8:51 AM EST on December 16, 2017 (GMT -0500)
Burke Lakefront

Weather History for KBKL - January, 2001

Change the Weather History Date:

Sunday, January 28, 2001

  Actual Average Record
Temperature  
Mean Temperature 22 °F -  
Max Temperature 27 °F 33 °F 57 °F (2002)
Min Temperature 17 °F 21 °F -6 °F (2014)
Degree Days  
Heating Degree Days 43    
Moisture  
Dew Point 16 °F    
Average Humidity 78    
Maximum Humidity 86    
Minimum Humidity 69    
Precipitation  
Precipitation 0.00 in - - ()
Sea Level Pressure  
Sea Level Pressure 30.32 in    
Wind  
Wind Speed 11 mph (SW)    
Max Wind Speed 16 mph    
Max Gust Speed -    
Visibility 8 miles    
Events      
Averages and records for this station are not official NWS values.
T = Trace of Precipitation, MM = Missing Value Source: NWS Daily Summary

Daily Weather History Graph

Daily Weather History Graph

Search for Another Location

Airport or City:

Trip Planner

Search our weather history database for the weather conditions in past years. The results will help you decide how hot, cold, wet, or windy it might be!

Date:

Astronomy

Jan. 28, 2001 Rise Set
Actual Time 7:42 AM EST 5:37 PM EST
Civil Twilight 7:12 AM EST 6:07 PM EST
Nautical Twilight 6:39 AM EST 6:40 PM EST
Astronomical Twilight 6:06 AM EST 7:13 PM EST
Moon 10:03 AM EST (1/28) 9:38 PM EST (1/28)
Length of Visible Light 10h 55m
Length of Day
9h 55m
Waxing Crescent, 15% of the Moon is Illuminated
Jan 28
Waxing Crescent
Feb 1
First Quarter
Feb 8
Full
Feb 14
Last Quarter
Feb 23
New

Hourly Weather History & Observations

Time (EST) Temp. Windchill Dew Point Humidity Pressure Visibility Wind Dir Wind Speed Gust Speed Precip Events Conditions
12:53 AM 19.9 °F 6.7 °F 14.0 °F 78% 30.27 in 10.0 mi SW 13.8 mph - N/A   Clear
1:53 AM 19.0 °F 6.1 °F 14.0 °F 81% 30.29 in 10.0 mi SW 12.7 mph - N/A   Clear
2:53 AM 19.0 °F 6.1 °F 14.0 °F 81% 30.29 in 9.0 mi SW 12.7 mph - N/A   Clear
3:53 AM 18.0 °F 4.2 °F 14.0 °F 84% 30.29 in 9.0 mi SW 13.8 mph - N/A   Clear
4:53 AM 18.0 °F 4.2 °F 12.9 °F 81% 30.30 in 10.0 mi SW 13.8 mph - N/A   Clear
5:53 AM 17.1 °F 4.3 °F 12.0 °F 81% 30.31 in 10.0 mi SW 11.5 mph - N/A   Clear
6:53 AM 17.1 °F 3.0 °F 12.0 °F 81% 30.31 in 10.0 mi SW 13.8 mph - N/A   Clear
7:53 AM 17.1 °F 5.0 °F 12.0 °F 81% 30.32 in 9.0 mi SW 10.4 mph - N/A   Scattered Clouds
8:00 AM 17.6 °F 4.3 °F 12.2 °F 79% 30.29 in 9.0 mi SW 12.7 mph - N/A   Mostly Cloudy
8:53 AM 18.0 °F 3.1 °F 14.0 °F 84% 30.35 in 4.0 mi SW 16.1 mph - N/A   Overcast
9:10 AM 17.6 °F 3.7 °F 14.0 °F 86% 30.32 in 2.5 mi SW 13.8 mph - N/A   Overcast
9:53 AM 19.0 °F 6.1 °F 15.1 °F 85% 30.36 in 3.0 mi SW 12.7 mph - N/A   Overcast
10:53 AM 21.0 °F 9.3 °F 16.0 °F 81% 30.37 in 6.0 mi SW 11.5 mph - N/A   Haze
11:53 AM 23.0 °F 11.7 °F 18.0 °F 81% 30.35 in 8.0 mi SW 11.5 mph - N/A   Overcast
12:53 PM 24.1 °F 14.4 °F 18.0 °F 77% 30.34 in 9.0 mi SW 9.2 mph - N/A   Overcast
1:53 PM 26.1 °F 16.8 °F 19.0 °F 75% 30.31 in 10.0 mi WSW 9.2 mph - N/A   Overcast
2:53 PM 27.0 °F 16.7 °F 19.0 °F 72% 30.32 in 10.0 mi SW 11.5 mph - N/A   Overcast
3:53 PM 27.0 °F 18.7 °F 19.0 °F 72% 30.34 in 10.0 mi WSW 8.1 mph - N/A   Mostly Cloudy
4:15 PM 26.6 °F 18.2 °F 19.4 °F 74% 30.31 in 10.0 mi WSW 8.1 mph - N/A   Partly Cloudy
4:53 PM 25.0 °F 17.1 °F 19.0 °F 78% 30.34 in 9.0 mi WSW 6.9 mph - N/A   Mostly Cloudy
5:53 PM 25.0 °F 18.1 °F 19.9 °F 81% 30.35 in 10.0 mi West 5.8 mph - N/A   Clear
6:53 PM 24.1 °F 16.0 °F 17.1 °F 75% 30.35 in 10.0 mi WSW 6.9 mph - N/A   Clear
7:53 PM 26.1 °F 21.9 °F 17.1 °F 69% 30.35 in 8.0 mi South 3.5 mph - N/A   Clear
8:53 PM 25.0 °F 19.3 °F 17.1 °F 72% 30.35 in 8.0 mi South 4.6 mph - N/A   Clear
9:53 PM 26.1 °F 20.5 °F 18.0 °F 71% 30.33 in 7.0 mi South 4.6 mph - N/A   Clear
10:53 PM 27.0 °F 19.5 °F 18.0 °F 69% 30.31 in 7.0 mi South 6.9 mph - N/A   Clear
11:53 PM 27.0 °F 20.5 °F 18.0 °F 69% 30.32 in 7.0 mi SSE 5.8 mph - N/A   Clear